• In Uzbekistan
  • List of Countries
  • For 7 days
  • Water Temperature
  • Satellite Maps
  • Weather Map
  • Weather Widgets
  • user-avatar
    Login

    Hourly Weather Tworylne

    Today, 20 February, Wednesday

    Time Temperature Precipitation Wind Pressure Humidity
    00:00 +2°C° 0 mm 2 mps 721 mmHg 90%
    01:00 +2°C° 0 mm 1 mps 721 mmHg 93%
    02:00 +3°C° 0.3 mm 1 mps 721 mmHg 93%
    03:00 +3°C° 0.3 mm 1 mps 721 mmHg 93%
    04:00 +4°C° 0.3 mm 1 mps 721 mmHg 93%
    05:00 +4°C° 0.1 mm 1 mps 721 mmHg 94%
    06:00 +2°C° 0.1 mm 2 mps 721 mmHg 95%
    07:00 +2°C° 0 mm 2 mps 722 mmHg 95%
    08:00 +3°C° 0 mm 2 mps 722 mmHg 92%
    09:00 +2°C° 0 mm 3 mps 722 mmHg 88%
    10:00 +3°C° 0 mm 4 mps 722 mmHg 84%
    11:00 +3°C° 0.1 mm 4 mps 723 mmHg 81%
    12:00 +3°C° 0.1 mm 4 mps 723 mmHg 78%
    13:00 +4°C° 0 mm 4 mps 723 mmHg 74%
    14:00 +4°C° 0.1 mm 4 mps 723 mmHg 74%
    15:00 +3°C° 0.1 mm 3 mps 723 mmHg 75%
    16:00 +3°C° 0.1 mm 3 mps 723 mmHg 76%
    17:00 +3°C° 0 mm 2 mps 723 mmHg 80%
    18:00 +2°C° 0 mm 2 mps 724 mmHg 84%
    19:00 +2°C° 0 mm 1 mps 724 mmHg 88%
    20:00 +2°C° 0.1 mm 1 mps 724 mmHg 89%
    21:00 +1°C° 0.1 mm 2 mps 725 mmHg 90%
    22:00 +2°C° 0.1 mm 2 mps 725 mmHg 91%
    23:00 +1°C° 0 mm 2 mps 725 mmHg 92%

    Tomorrow, 21 February, Thursday

    Time Temperature Precipitation Wind Pressure Humidity
    00:00 +2°C° 0 mm 1 mps 726 mmHg 92%
    01:00 +2°C° 0 mm 1 mps 726 mmHg 93%
    02:00 +1°C° 0 mm 1 mps 726 mmHg 93%
    03:00 +1°C° 0 mm 1 mps 726 mmHg 94%
    04:00 +1°C° 0 mm 1 mps 726 mmHg 94%
    05:00 +1°C° 0 mm 1 mps 726 mmHg 93%
    06:00 +1°C° 0 mm 1 mps 726 mmHg 93%
    07:00 +2°C° 0 mm 1 mps 727 mmHg 92%
    08:00 +2°C° 0 mm 2 mps 727 mmHg 87%
    09:00 +3°C° 0 mm 2 mps 727 mmHg 81%
    10:00 +3°C° 0 mm 3 mps 727 mmHg 76%
    11:00 +4°C° 0 mm 3 mps 727 mmHg 74%
    12:00 +4°C° 0 mm 3 mps 727 mmHg 73%
    13:00 +5°C° 0 mm 3 mps 726 mmHg 71%
    14:00 +4°C° 0 mm 3 mps 726 mmHg 74%
    15:00 +4°C° 0 mm 3 mps 726 mmHg 76%
    16:00 +5°C° 0 mm 2 mps 726 mmHg 78%
    17:00 +3°C° 0 mm 3 mps 725 mmHg 80%
    18:00 +3°C° 0 mm 3 mps 725 mmHg 81%
    19:00 +2°C° 0 mm 3 mps 725 mmHg 82%
    20:00 +2°C° 0.2 mm 3 mps 725 mmHg 83%
    21:00 +2°C° 0.2 mm 3 mps 724 mmHg 84%
    22:00 +2°C° 0.2 mm 3 mps 724 mmHg 86%
    23:00 +2°C° 0.7 mm 3 mps 724 mmHg 87%

    Day after tomorrow, 22 February, Friday

    Time Temperature Precipitation Wind Pressure Humidity
    00:00 +2°C° 0.7 mm 3 mps 723 mmHg 89%
    01:00 +3°C° 0.7 mm 2 mps 723 mmHg 91%
    02:00 +2°C° 0.6 mm 2 mps 722 mmHg 92%
    03:00 +2°C° 0.6 mm 2 mps 722 mmHg 93%
    04:00 +2°C° 0.6 mm 2 mps 721 mmHg 95%
    05:00 +2°C° 1 mm 2 mps 721 mmHg 95%
    06:00 +2°C° 1 mm 2 mps 722 mmHg 96%
    07:00 +3°C° 1 mm 1 mps 722 mmHg 97%
    08:00 0°C° 1 mm 3 mps 723 mmHg 96%
    09:00 -2°C° 1 mm 4 mps 723 mmHg 95%
    10:00 -4°C° 1 mm 5 mps 724 mmHg 94%
    11:00 -5°C° 0.1 mm 6 mps 725 mmHg 90%
    12:00 -5°C° 0.1 mm 6 mps 726 mmHg 86%
    13:00 -5°C° 0.1 mm 6 mps 727 mmHg 81%
    14:00 -6°C° 0 mm 6 mps 728 mmHg 79%
    15:00 -6°C° 0 mm 6 mps 728 mmHg 76%
    16:00 -8°C° 0 mm 6 mps 729 mmHg 74%
    17:00 -9°C° 0 mm 6 mps 730 mmHg 75%
    18:00 -10°C° 0 mm 6 mps 731 mmHg 76%
    19:00 -11°C° 0 mm 6 mps 731 mmHg 77%
    20:00 -11°C° 0 mm 6 mps 732 mmHg 75%
    21:00 -11°C° 0 mm 6 mps 733 mmHg 74%
    22:00 -12°C° 0 mm 5 mps 733 mmHg 72%
    23:00 -12°C° 0 mm 5 mps 734 mmHg 71%

    23 February, Saturday

    Time Temperature Precipitation Wind Pressure Humidity
    00:00 -12°C° 0 mm 5 mps 734 mmHg 70%
    01:00 -12°C° 0 mm 5 mps 734 mmHg 68%
    02:00 -12°C° 0 mm 5 mps 734 mmHg 69%
    03:00 -12°C° 0 mm 5 mps 734 mmHg 70%
    04:00 -12°C° 0 mm 5 mps 734 mmHg 71%
    05:00 -13°C° 0 mm 5 mps 735 mmHg 72%
    06:00 -12°C° 0 mm 4 mps 735 mmHg 72%
    07:00 -12°C° 0 mm 4 mps 735 mmHg 73%
    08:00 -11°C° 0 mm 4 mps 736 mmHg 70%
    09:00 -11°C° 0 mm 5 mps 736 mmHg 67%
    10:00 -10°C° 0 mm 5 mps 736 mmHg 64%
    11:00 -10°C° 0 mm 5 mps 736 mmHg 62%
    12:00 -8°C° 0 mm 4 mps 736 mmHg 59%
    13:00 -7°C° 0 mm 4 mps 736 mmHg 57%
    14:00 -8°C° 0 mm 4 mps 736 mmHg 57%
    15:00 -8°C° 0 mm 4 mps 736 mmHg 57%
    16:00 -8°C° 0 mm 4 mps 736 mmHg 58%
    17:00 -8°C° 0 mm 3 mps 736 mmHg 61%
    18:00 -8°C° 0 mm 3 mps 736 mmHg 64%
    19:00 -8°C° 0 mm 2 mps 736 mmHg 68%
    20:00 -8°C° 0 mm 2 mps 736 mmHg 70%
    21:00 -7°C° 0 mm 1 mps 736 mmHg 71%
    22:00 -8°C° 0 mm 1 mps 737 mmHg 73%
    23:00 -8°C° 0 mm 1 mps 736 mmHg 74%

    24 February, Sunday

    Time Temperature Precipitation Wind Pressure Humidity
    00:00 -8°C° 0 mm 1 mps 736 mmHg 75%
    01:00 -8°C° 0 mm 1 mps 736 mmHg 76%
    02:00 -8°C° 0 mm 1 mps 736 mmHg 75%
    03:00 -8°C° 0 mm 1 mps 735 mmHg 75%
    04:00 -8°C° 0 mm 0 mps 735 mmHg 74%
    05:00 -8°C° 0 mm 0 mps 735 mmHg 73%
    06:00 -8°C° 0 mm 0 mps 735 mmHg 71%
    07:00 -8°C° 0 mm 0 mps 735 mmHg 69%
    08:00 -6°C° 0 mm 1 mps 735 mmHg 61%
    09:00 -3°C° 0 mm 1 mps 735 mmHg 54%
    10:00 -1°C° 0 mm 1 mps 735 mmHg 47%
    11:00 0°C° 0 mm 1 mps 735 mmHg 48%
    12:00 +1°C° 0 mm 1 mps 734 mmHg 50%
    13:00 +2°C° 0 mm 1 mps 734 mmHg 52%
    14:00 +2°C° 0 mm 1 mps 734 mmHg 54%
    15:00 +2°C° 0 mm 1 mps 733 mmHg 57%
    16:00 +2°C° 0 mm 1 mps 733 mmHg 60%
    17:00 +1°C° 0 mm 1 mps 733 mmHg 62%
    18:00 +1°C° 0 mm 1 mps 733 mmHg 64%
    19:00 0°C° 0 mm 1 mps 732 mmHg 66%
    20:00 0°C° 0.1 mm 1 mps 732 mmHg 69%
    21:00 0°C° 0.1 mm 1 mps 732 mmHg 72%
    22:00 0°C° 0.1 mm 1 mps 732 mmHg 76%
    23:00 0°C° 0 mm 1 mps 731 mmHg 78%

    25 February, Monday

    Time Temperature Precipitation Wind Pressure Humidity
    00:00 -2°C° 0 mm 2 mps 731 mmHg 80%
    01:00 -2°C° 0 mm 2 mps 730 mmHg 82%
    02:00 -2°C° 0.1 mm 2 mps 730 mmHg 85%
    03:00 -2°C° 0.1 mm 2 mps 730 mmHg 88%
    04:00 -1°C° 0.1 mm 3 mps 729 mmHg 91%
    05:00 -1°C° 0.2 mm 3 mps 729 mmHg 91%
    06:00 -2°C° 0.2 mm 4 mps 729 mmHg 91%
    07:00 -1°C° 0.2 mm 5 mps 729 mmHg 92%
    08:00 -1°C° 0.1 mm 5 mps 729 mmHg 89%
    09:00 -3°C° 0.1 mm 6 mps 729 mmHg 87%
    10:00 -3°C° 0.1 mm 6 mps 729 mmHg 85%
    11:00 -2°C° 0.1 mm 7 mps 729 mmHg 83%
    12:00 -2°C° 0.1 mm 7 mps 729 mmHg 81%
    13:00 -2°C° 0.1 mm 7 mps 729 mmHg 78%
    14:00 -2°C° 0 mm 7 mps 728 mmHg 75%
    15:00 -2°C° 0 mm 7 mps 728 mmHg 73%
    16:00 -2°C° 0 mm 7 mps 728 mmHg 70%
    17:00 -2°C° 0.2 mm 7 mps 728 mmHg 73%
    18:00 -3°C° 0.2 mm 6 mps 729 mmHg 77%
    19:00 -3°C° 0.2 mm 6 mps 729 mmHg 81%
    20:00 -3°C° 0.2 mm 6 mps 729 mmHg 81%
    21:00 -3°C° 0.2 mm 6 mps 729 mmHg 82%
    22:00 -4°C° 0.2 mm 6 mps 729 mmHg 82%
    23:00 -4°C° 0.1 mm 6 mps 729 mmHg 85%
    Show more